Location: Unspecified
(0.0000°N, 0.0000°E)
Time: 20:40:21
(UTC+00:00)

Tiros 1 despin weight - Pass Details

Date: 28 May 2022
Orbit: 591 x 639 km, 48.2° (Epoch: 25 June)

Event Time Altitude Azimuth Distance (km) Brightness Sun altitude
Rises 12:48:16 0° 188° (S) 2,935 ? 65.2°
Reaches altitude 10° 12:51:39 10° 163° (SSE) 2,021 ? 64.7°
Maximum altitude 12:54:07 14° 131° (SE) 1,753 ? 64.4°
Drops below altitude 10° 12:56:34 10° 98° (E) 2,009 ? 64.1°
Sets 12:59:53 0° 73° (ENE) 2,906 ? 63.6°
